Temperature
20 19 19 19 19 19 19 19 19 19 19 19 19 19 19 19 19 19 19 19 18 18 18 18 18 18 18 18 18 18 19 19 19 19 19 19 19 19 19 19 17 17 18
20 19 20 19 19 19 19 19 19 19 19 19 19 19 19 19 19 19 19 19 19 18 18 18 18 18 18 18 18 18 18 19 19 19 19 19 19 19 19 19 18 18 18
19 19 19 19 19 19 19 19 19 19 19 19 19 19 19 19 19 19 19 19 19 19 19 19 19 19 19 19 19 18 18 18 19 19 19 17 18 19 19 19 19 19 19
19 19 18 19 19 19 19 19 19 19 19 19 19 19 19 19 19 19 19 19 19 19 19 19 19 18 19 19 19 19 19 18 19 19 18 17 17 19 19 19 19 19 19
19 19 18 18 19 19 19 19 19 19 19 19 19 19 18 18 18 19 19 19 19 19 19 19 19 18 18 18 19 19 19 19 19 18 17 17 17 18 19 19 19 19 19
18 19 18 18 18 19 19 19 19 19 19 19 19 19 18 18 18 18 18 18 18 18 19 19 19 19 18 18 18 18 18 18 19 17 17 17 17 18 19 19 19 19 18
19 19 18 18 18 19 19 19 18 19 20 19 19 18 18 18 18 18 18 18 18 18 18 18 19 18 18 17 17 18 18 18 17 17 17 17 17 18 18 19 18 18 18
19 19 18 18 18 19 19 18 18 19 20 19 19 19 18 18 18 18 18 18 18 18 18 18 18 18 18 17 17 17 17 17 17 17 17 17 17 17 18 18 19 19 19
19 19 18 17 18 19 19 19 18 19 19 19 18 19 18 18 18 18 18 18 18 18 18 18 18 18 18 18 17 17 17 17 17 18 17 17 17 17 17 18 18 18 18
19 19 18 18 18 18 18 19 18 18 18 18 18 18 18 18 18 18 18 18 18 17 18 18 18 17 17 17 17 17 17 17 17 17 17 17 17 17 17 17 17 18 18
18 18 18 18 18 18 18 18 18 18 18 18 18 18 18 17 17 17 17 18 18 18 18 18 17 17 17 17 17 17 17 16 17 17 17 17 17 17 17 17 17 17 17
18 18 18 18 18 18 18 18 17 17 17 17 16 17 17 17 17 17 17 18 18 18 18 18 17 17 17 17 17 17 17 17 17 17 17 16 17 17 17 17 17 17 17
18 18 18 17 18 18 18 18 18 18 17 17 16 16 17 17 17 17 17 17 17 17 17 17 17 17 17 17 17 17 17 17 17 17 17 17 17 16 17 17 17 17 17
18 18 18 17 17 18 18 17 17 17 17 17 17 16 16 16 17 17 17 17 17 17 17 17 17 17 17 17 17 16 16 16 16 16 16 16 17 17 17 17 17 17 17
18 18 18 18 19 18 18 17 17 17 17 17 17 17 17 17 17 17 17 17 17 17 17 17 17 17 16 16 16 17 16 16 16 16 16 16 17 16 17 16 16 17 17
19 19 20 20 21 21 20 19 17 17 17 17 17 17 17 17 17 17 17 17 17 17 18 18 17 17 17 16 16 16 16 16 16 16 17 17 17 16 16 17 17 17 17
19 19 19 20 21 22 21 19 18 17 17 17 17 17 17 18 17 17 17 18 17 17 17 17 17 17 17 17 17 16 16 16 16 17 17 17 17 17 17 17 17 17 18
19 19 18 19 20 21 20 19 17 17 17 17 17 17 17 18 17 17 17 17 18 17 17 17 17 17 18 17 17 16 16 16 17 17 17 16 17 16 16 16 17 17 18
19 19 19 20 20 19 19 18 17 17 17 17 17 17 17 17 17 17 17 18 17 17 17 17 17 17 18 17 17 16 16 16 17 17 16 16 17 16 16 16 15 16 17
19 19 19 19 19 18 18 17 17 17 17 17 17 17 17 17 17 17 17 17 17 18 17 17 17 17 17 17 17 17 17 17 17 16 16 16 16 16 16 15 15 16 16
19 19 19 19 19 19 18 17 17 18 18 18 18 18 18 18 17 17 17 17 17 18 17 17 17 17 17 17 17 18 18 18 17 16 17 16 16 16 16 16 15 16 15
18 18 18 18 18 18 18 18 18 18 19 19 20 21 20 19 18 18 18 17 17 18 17 17 17 17 16 16 17 18 20 19 18 17 17 16 17 16 16 17 17 17 16
17 17 17 17 17 18 18 18 17 17 16 17 19 19 19 20 19 19 19 18 18 17 17 17 17 17 17 17 16 17 19 20 19 18 17 17 17 17 17 17 16 16 16
16 15 15 16 17 17 17 16 16 16 16 17 17 18 18 18 18 18 18 18 18 17 17 18 18 17 17 17 16 16 16 17 18 19 19 18 17 17 17 16 16 16 15
14 14 14 15 15 16 16 16 15 15 15 16 16 17 18 17 18 17 17 17 17 17 17 17 17 17 17 17 17 16 16 15 16 17 18 19 18 18 17 17 16 15 15
14 14 14 14 14 14 14 14 15 14 14 15 16 15 15 16 17 16 16 17 17 17 17 17 17 17 17 16 16 16 16 17 17 17 17 18 18 18 17 16 15 15 15
Wind_Speed
11 17 17 16 15 14 14 15 16 19 20 20 18 15 13 12 11 10 10 10 9 9 9 9 9 8 7 7 8 9 12 13 13 11 11 10 10 11 10 6 6 12 11
14 18 18 17 15 14 14 14 14 17 20 19 17 16 14 13 11 11 10 10 10 9 8 8 8 8 7 8 9 10 11 12 12 10 9 9 9 9 8 6 8 10 9
14 17 17 17 15 13 12 13 14 16 17 18 16 15 14 13 11 11 10 10 9 9 8 7 7 9 8 8 10 9 9 9 10 10 8 7 8 8 7 7 8 8 8
14 15 16 17 15 13 12 12 13 14 16 16 16 15 14 13 11 10 10 10 9 8 7 6 5 7 8 8 9 9 8 7 8 8 8 5 6 8 7 7 7 6 7
12 12 15 16 15 14 13 13 13 13 14 14 14 14 13 12 11 10 9 9 9 7 6 6 5 5 6 9 8 8 8 7 7 8 4 3 4 12 10 8 8 8 6
11 10 15 13 14 13 12 13 14 13 13 13 13 12 12 11 10 10 7 7 7 6 6 5 5 4 4 6 7 6 5 4 6 6 4 3 2 12 11 10 7 7 6
11 11 13 12 12 11 9 10 14 14 13 11 10 9 8 8 8 8 7 5 5 4 4 3 2 3 4 4 5 5 5 5 8 4 5 6 6 9 8 9 9 8 9
12 11 14 12 11 12 9 7 9 11 12 11 10 8 7 6 6 6 6 5 4 3 2 2 2 1 3 4 4 3 3 5 8 6 6 7 5 5 7 10 12 12 12
10 9 11 12 12 11 11 10 10 10 10 10 9 8 7 7 7 6 6 6 6 5 4 3 4 4 4 4 5 6 6 6 10 8 6 5 6 6 8 11 13 14 14
10 8 9 11 12 11 10 9 9 10 10 10 10 9 8 8 8 8 6 7 5 5 6 7 7 7 5 6 7 8 9 9 11 12 9 7 1 2 8 11 12 14 16
11 10 9 9 10 10 10 10 7 7 6 6 9 10 9 10 10 10 9 5 4 6 7 8 9 9 8 11 12 11 10 12 12 11 10 7 7 5 9 11 13 15 16
13 12 11 10 10 10 9 9 9 9 9 8 8 8 9 7 5 5 3 4 6 7 7 8 9 9 10 13 14 15 13 14 13 11 9 6 7 10 14 14 14 15 17
14 13 11 10 9 9 8 8 9 8 8 8 8 8 7 5 6 7 8 7 8 9 9 8 9 10 8 8 8 9 9 9 10 10 11 8 9 12 15 15 16 16 17
14 13 12 11 9 9 8 8 9 8 8 8 9 10 8 7 6 7 4 5 5 7 5 5 5 4 5 7 7 8 9 8 9 9 8 6 8 11 13 14 14 16 18
13 13 13 13 11 10 9 8 9 8 8 9 9 10 10 8 7 7 7 7 7 7 6 6 4 5 5 6 8 7 8 7 8 9 9 9 11 11 11 12 14 17 18
13 14 14 15 13 11 10 10 9 9 9 9 10 11 11 10 8 7 6 8 7 7 9 5 5 6 5 6 7 6 8 8 7 7 9 8 10 9 9 11 13 15 18
11 11 13 14 14 13 12 11 10 9 10 10 11 11 11 11 10 9 7 7 6 7 9 8 8 7 7 7 6 6 6 7 8 8 9 9 8 11 10 11 12 15 18
10 10 11 11 13 13 11 9 8 8 8 9 11 11 11 13 13 10 8 9 9 7 7 6 5 8 7 6 5 5 6 5 7 8 8 8 8 8 10 12 11 15 17
10 9 10 12 13 12 11 8 7 6 5 8 10 11 10 13 15 12 9 7 8 8 6 5 4 7 6 5 5 4 5 6 7 8 7 8 9 10 12 9 9 16 14
9 9 10 10 9 8 6 5 3 4 8 15 15 15 15 15 15 13 9 10 10 9 6 6 5 6 6 5 6 5 5 6 6 7 6 7 7 9 9 10 10 11 9
7 9 10 10 8 6 5 6 4 2 3 5 11 19 18 19 18 11 9 10 10 10 8 7 6 6 6 5 6 6 6 6 5 5 4 5 5 7 7 7 8 9 8
5 3 2 4 4 5 6 8 7 6 10 13 13 15 16 17 16 13 11 10 11 9 10 9 7 6 5 7 7 7 6 4 7 4 4 4 4 5 5 5 6 7 10
4 1 0 1 1 2 5 7 7 8 9 9 14 14 12 16 14 12 12 11 11 10 9 9 9 10 7 7 6 7 4 3 4 4 5 4 4 6 6 6 5 7 9
3 2 2 3 2 2 2 5 9 10 14 18 18 15 11 10 9 11 11 12 12 9 10 10 11 8 8 7 6 8 8 6 7 4 5 6 7 7 7 7 6 7 9
2 2 2 3 3 1 1 4 7 12 15 16 16 16 12 9 7 9 9 9 9 8 9 10 9 8 7 7 7 8 6 6 9 8 10 6 6 4 4 5 5 6 8
5 4 3 3 1 1 2 4 7 12 17 18 17 15 11 6 5 8 8 7 7 7 8 10 8 8 8 8 8 8 7 8 8 9 10 10 10 7 3 3 3 5 7
Wind_Direction
150 136 151 153 152 146 139 135 140 149 148 150 152 149 142 135 126 114 109 105 99 100 113 118 112 103 103 116 135 125 121 123 125 123 117 111 104 100 98 107 118 96 97
148 141 151 156 157 152 145 139 136 145 149 150 154 150 145 142 136 127 119 109 101 99 107 113 120 107 97 96 108 125 130 134 135 128 129 126 115 108 104 79 69 98 103
147 143 156 155 156 153 147 142 135 134 144 148 150 148 147 147 142 136 129 118 109 103 103 112 134 126 113 105 111 122 132 139 142 139 175 169 132 125 122 112 108 118 121
148 150 154 151 155 152 150 146 137 132 138 144 146 149 150 151 148 141 135 124 117 111 109 108 117 135 131 123 125 133 142 155 152 164 198 177 146 143 145 140 138 141 146
146 151 137 149 155 153 152 150 145 141 141 144 148 154 157 158 153 142 133 128 120 109 99 104 107 129 146 140 136 140 151 168 161 203 195 200 190 152 165 169 171 169 182
146 151 127 147 150 150 155 158 150 147 146 147 153 156 162 164 158 149 148 136 122 120 110 104 118 139 152 143 140 153 160 165 199 212 190 195 219 136 166 188 198 178 182
150 145 134 142 144 145 156 165 158 155 151 149 148 153 165 166 159 155 154 138 123 120 124 120 120 137 146 146 148 165 183 195 243 231 210 212 178 137 180 199 206 202 197
153 149 136 144 149 148 156 168 157 151 153 153 155 158 170 172 172 173 164 161 156 160 169 160 203 174 151 164 178 185 218 257 261 247 236 223 164 161 216 219 212 210 209
151 155 142 154 154 154 159 169 173 164 166 163 168 172 181 189 194 198 199 199 198 202 216 230 232 230 202 196 208 221 237 261 271 262 258 266 174 199 226 233 224 215 212
160 160 163 161 163 170 170 178 184 171 175 177 184 185 183 201 215 219 223 221 230 234 227 238 239 235 231 229 230 235 241 249 250 260 248 247 260 247 242 242 239 232 223
173 174 178 170 166 179 178 164 176 167 175 183 193 189 195 218 214 218 212 191 224 246 243 247 245 238 237 233 227 232 242 251 248 249 257 200 194 243 262 259 249 242 236
181 179 187 181 182 185 186 172 194 188 198 201 206 201 213 225 246 277 245 187 229 244 251 251 250 249 245 244 219 210 229 243 253 253 252 213 227 254 260 262 259 251 245
185 184 189 187 192 194 195 196 207 201 209 208 214 223 232 235 235 237 239 219 218 219 232 225 225 234 243 270 292 270 259 257 261 262 252 223 251 263 266 265 262 258 251
188 191 187 190 191 202 208 212 223 218 218 224 218 220 228 225 227 238 267 271 249 225 221 225 220 236 253 259 255 256 265 264 268 277 263 220 251 262 263 263 266 266 259
190 195 189 196 195 198 214 227 234 235 225 231 231 229 230 228 229 227 225 235 248 272 252 231 237 243 252 258 272 276 272 256 261 268 272 251 244 254 263 266 267 269 266
195 197 194 197 198 204 213 225 235 243 247 245 243 235 231 240 246 247 233 243 238 260 273 280 273 267 269 273 255 247 259 275 266 272 276 257 206 228 250 268 279 281 277
204 200 201 201 201 206 215 223 233 243 250 255 250 240 235 237 247 255 255 263 262 257 267 276 266 268 267 258 275 276 269 268 275 280 283 283 246 219 223 249 271 286 283
211 205 208 206 208 212 216 224 237 248 255 255 256 246 237 242 246 251 255 248 250 249 252 254 264 263 264 288 281 272 269 271 265 259 266 270 268 275 255 239 249 276 283
207 202 211 213 212 214 221 226 229 239 269 280 277 270 258 257 256 257 270 273 278 260 254 257 254 265 283 283 270 245 255 263 256 260 274 266 264 280 295 284 264 270 275
195 195 205 214 215 215 224 244 272 354 9 344 321 299 277 260 257 260 267 269 262 258 251 258 251 253 270 290 294 278 259 259 265 267 262 255 266 289 304 320 308 296 277
174 186 195 199 198 201 217 231 216 144 174 257 273 276 263 256 252 246 252 259 257 255 253 255 253 258 272 283 274 264 252 226 233 261 252 257 281 302 311 321 323 327 309
136 152 188 218 209 214 227 223 220 208 229 231 226 238 230 236 238 232 236 251 257 259 248 252 253 253 259 265 277 286 266 233 183 215 244 250 273 288 295 309 325 326 318
100 125 246 334 317 276 263 260 252 231 239 239 248 254 240 222 211 218 222 242 257 259 259 254 252 253 252 255 269 281 282 273 328 179 197 240 261 279 291 285 302 317 323
40 7 23 38 31 343 291 241 229 229 235 236 237 242 248 249 228 225 226 233 243 255 255 245 244 250 251 253 252 259 268 286 286 281 212 197 222 255 263 279 288 305 329
80 69 86 110 98 62 282 272 256 259 255 252 253 245 239 257 268 251 244 238 234 249 259 254 249 248 247 255 255 253 250 252 250 271 282 272 279 293 293 277 294 310 335
120 146 163 154 92 20 310 295 281 276 267 255 248 240 232 248 289 288 263 244 239 240 248 255 250 251 251 249 258 264 253 254 257 255 269 282 291 296 328 291 290 324 327
Height
1536 1536 1536 1539 1541 1543 1545 1547 1548 1550 1551 1554 1556 1557 1559 1560 1561 1561 1561 1561 1561 1562 1563 1564 1566 1568 1568 1570 1571 1571 1572 1572 1572 1573 1573 1573 1573 1574 1574 1574 1574 1573 1572
1536 1536 1536 1539 1541 1544 1546 1549 1550 1552 1553 1555 1557 1559 1560 1561 1561 1562 1562 1563 1564 1564 1565 1566 1568 1568 1569 1571 1572 1572 1572 1573 1573 1574 1575 1574 1575 1575 1575 1575 1575 1575 1574
1536 1538 1538 1540 1543 1545 1548 1550 1552 1554 1556 1556 1558 1560 1561 1562 1562 1563 1564 1565 1566 1566 1567 1567 1568 1568 1569 1570 1571 1573 1574 1574 1573 1574 1575 1577 1576 1576 1576 1576 1576 1576 1576
1537 1540 1542 1542 1544 1547 1549 1551 1553 1555 1557 1558 1559 1561 1562 1563 1564 1565 1565 1566 1567 1568 1569 1569 1569 1569 1570 1570 1571 1572 1573 1573 1574 1574 1575 1578 1577 1576 1576 1577 1577 1577 1577
1539 1542 1544 1543 1545 1548 1550 1552 1554 1556 1557 1559 1560 1562 1563 1564 1566 1567 1568 1569 1569 1570 1570 1570 1570 1570 1570 1570 1571 1571 1571 1572 1572 1574 1576 1576 1577 1576 1576 1576 1577 1577 1577
1541 1545 1544 1546 1548 1550 1551 1553 1555 1557 1558 1560 1561 1563 1564 1566 1567 1568 1569 1570 1571 1572 1572 1572 1571 1571 1571 1571 1571 1571 1571 1571 1572 1575 1574 1574 1575 1575 1575 1575 1576 1576 1576
1543 1546 1546 1548 1550 1552 1553 1554 1556 1558 1559 1561 1562 1564 1566 1568 1569 1569 1570 1571 1572 1573 1573 1573 1572 1572 1571 1571 1571 1571 1571 1571 1572 1575 1574 1574 1574 1574 1574 1574 1575 1575 1576
1544 1547 1548 1548 1551 1552 1554 1556 1557 1558 1560 1561 1563 1564 1567 1568 1568 1569 1570 1570 1571 1572 1572 1572 1572 1572 1571 1571 1571 1571 1572 1571 1572 1573 1574 1574 1573 1573 1573 1573 1573 1574 1574
1545 1548 1549 1549 1551 1552 1554 1556 1558 1560 1561 1562 1563 1564 1566 1568 1568 1569 1570 1570 1570 1570 1571 1571 1571 1571 1571 1571 1571 1571 1570 1570 1570 1573 1573 1573 1572 1572 1572 1572 1571 1571 1571
1545 1548 1550 1551 1552 1553 1555 1557 1560 1561 1562 1563 1564 1564 1565 1567 1568 1569 1569 1570 1570 1570 1570 1570 1570 1570 1571 1571 1570 1570 1569 1568 1568 1570 1570 1570 1569 1569 1569 1569 1568 1568 1569
1543 1546 1549 1551 1552 1554 1557 1559 1560 1561 1563 1564 1564 1564 1565 1567 1568 1569 1569 1568 1568 1568 1568 1568 1568 1568 1568 1568 1569 1569 1568 1567 1568 1568 1568 1567 1566 1566 1566 1567 1566 1566 1566
1542 1545 1548 1551 1553 1555 1558 1560 1560 1562 1563 1565 1565 1566 1565 1567 1567 1568 1569 1567 1567 1568 1568 1567 1567 1566 1566 1567 1567 1566 1566 1566 1566 1566 1565 1563 1563 1563 1562 1562 1562 1562 1562
1541 1544 1547 1549 1552 1555 1558 1560 1561 1562 1563 1564 1564 1564 1565 1565 1565 1566 1567 1567 1567 1567 1567 1566 1565 1565 1565 1565 1565 1565 1565 1564 1563 1563 1562 1560 1559 1558 1557 1557 1557 1557 1557
1540 1544 1547 1549 1551 1553 1557 1559 1560 1561 1562 1562 1564 1564 1564 1563 1564 1564 1565 1566 1566 1567 1566 1566 1565 1564 1563 1563 1563 1562 1562 1561 1561 1559 1558 1556 1555 1554 1553 1552 1552 1552 1552
1540 1543 1544 1545 1548 1550 1554 1557 1559 1561 1562 1562 1563 1563 1563 1563 1564 1564 1562 1563 1563 1564 1565 1565 1564 1562 1562 1560 1560 1560 1560 1558 1556 1556 1554 1552 1551 1550 1549 1548 1548 1546 1546
1539 1540 1542 1543 1545 1548 1550 1552 1555 1558 1560 1561 1562 1563 1562 1563 1563 1563 1562 1563 1563 1561 1562 1563 1562 1561 1560 1559 1558 1557 1556 1555 1554 1553 1551 1550 1547 1546 1545 1545 1544 1542 1540
1540 1542 1542 1543 1545 1547 1549 1551 1554 1558 1560 1561 1561 1561 1561 1561 1562 1562 1562 1561 1560 1559 1558 1560 1559 1559 1559 1558 1557 1555 1554 1552 1552 1551 1549 1547 1546 1544 1543 1542 1540 1538 1535
1538 1540 1541 1543 1544 1546 1549 1551 1554 1556 1557 1558 1560 1561 1561 1560 1559 1559 1560 1560 1559 1557 1556 1556 1557 1558 1558 1557 1554 1551 1550 1550 1549 1548 1548 1546 1545 1544 1541 1537 1534 1531 1529
1535 1536 1538 1540 1542 1544 1547 1549 1551 1552 1554 1556 1558 1558 1559 1560 1559 1558 1557 1558 1557 1556 1555 1553 1553 1554 1556 1555 1553 1550 1548 1548 1548 1547 1546 1544 1543 1541 1538 1534 1529 1526 1523
1532 1534 1535 1538 1540 1542 1545 1547 1547 1548 1549 1552 1554 1554 1554 1555 1556 1555 1554 1555 1555 1556 1553 1551 1551 1552 1552 1552 1552 1550 1548 1546 1547 1546 1544 1543 1541 1538 1535 1531 1526 1525 1521
1528 1530 1532 1534 1536 1539 1541 1543 1543 1542 1542 1550 1550 1546 1544 1545 1550 1549 1549 1553 1552 1553 1552 1550 1550 1549 1548 1549 1550 1549 1547 1545 1544 1544 1542 1541 1540 1537 1533 1529 1526 1522 1519
1526 1528 1529 1531 1532 1533 1534 1535 1536 1534 1531 1530 1530 1534 1533 1533 1539 1543 1542 1547 1549 1549 1547 1547 1546 1546 1544 1545 1547 1547 1545 1544 1541 1542 1541 1539 1537 1535 1532 1528 1524 1519 1516
1524 1525 1526 1527 1527 1527 1527 1528 1527 1526 1524 1523 1523 1522 1525 1526 1528 1534 1535 1540 1543 1543 1543 1542 1543 1543 1542 1542 1542 1545 1542 1539 1539 1538 1538 1537 1535 1534 1531 1527 1522 1518 1514
1520 1522 1522 1521 1521 1522 1522 1521 1520 1518 1516 1514 1514 1516 1519 1521 1524 1527 1530 1534 1537 1538 1538 1538 1539 1539 1539 1538 1539 1541 1540 1537 1537 1535 1534 1533 1531 1531 1528 1525 1522 1518 1513
1518 1519 1519 1518 1518 1519 1519 1518 1516 1513 1511 1509 1508 1509 1512 1517 1519 1521 1526 1531 1530 1531 1534 1534 1534 1534 1535 1534 1535 1536 1536 1534 1534 1534 1533 1532 1531 1529 1527 1523 1519 1516 1511
1519 1518 1518 1518 1518 1517 1516 1515 1512 1508 1504 1501 1502 1503 1504 1508 1512 1516 1522 1526 1525 1527 1531 1532 1531 1530 1531 1530 1531 1533 1532 1532 1531 1530 1530 1529 1529 1528 1525 1522 1518 1514 1510